CAPE
0 0 0 0 0 0 0 0 0 0 0 0 0 0 0 0 0 0 0 23 79 711 1451 1518 1574 1278 1217 1104 962 905 900 897 1098 1119 1088 920 792 421 213 76 15 3 3 1 0 0 0 0 0
0 0 0 0 0 0 0 0 0 0 0 0 0 0 0 0 0 0 0 2 185 651 1356 1543 1584 1378 1297 1068 914 975 987 929 1135 1073 1005 781 718 381 196 82 18 8 3 3 0 0 0 0 0
0 0 0 0 0 0 0 0 0 0 0 0 0 0 0 0 0 0 0 0 316 624 1278 1662 1461 1374 1282 1180 1021 1069 1074 1018 971 1053 920 928 647 369 213 60 12 0 2 5 0 0 0 0 0
0 0 0 0 0 0 0 0 0 0 0 0 0 0 0 0 0 0 0 58 271 566 1135 1485 1242 1328 1329 1248 1113 1088 1121 1025 900 936 1019 906 787 474 205 54 2 0 0 2 1 0 0 0 0
0 0 0 0 0 0 0 0 0 0 0 0 0 0 0 0 0 0 0 0 198 468 977 1500 1231 1413 1418 1176 1009 918 996 991 917 778 656 721 680 429 205 39 0 0 0 0 0 0 0 0 0
0 0 0 0 0 0 0 0 0 0 0 0 0 0 0 0 0 0 0 0 98 534 923 1151 1147 1279 1361 1182 1113 1023 871 794 660 770 735 755 569 333 278 94 1 0 0 0 0 0 0 0 0
0 0 0 0 0 0 0 0 0 0 0 0 0 0 0 0 0 0 0 0 120 511 753 781 884 1043 1184 1224 1148 1065 851 661 546 571 461 536 431 299 267 100 6 0 0 0 0 0 0 0 0
0 0 0 0 0 0 0 0 0 0 0 0 0 0 0 0 0 0 0 0 0 0 0 95 492 832 973 1367 1116 1090 1015 813 684 566 506 476 476 232 17 0 0 0 0 0 0 0 0 0 0
0 0 0 0 0 0 0 0 0 0 0 0 0 0 0 0 0 0 0 0 0 0 0 0 0 58 239 652 972 995 854 746 563 612 518 372 681 429 109 8 2 3 1 0 0 0 0 0 0
0 0 0 0 0 0 0 0 0 0 0 0 0 0 0 0 0 0 0 0 0 0 0 0 0 0 0 208 551 976 1040 694 545 801 690 647 531 471 274 6 7 7 4 2 0 0 0 0 0
0 0 0 0 0 0 0 0 0 0 0 0 0 0 0 0 0 0 0 0 0 0 0 0 0 0 0 1 201 528 613 303 582 734 620 498 400 342 245 32 10 11 4 3 2 1 0 0 0
0 0 0 0 0 0 0 0 0 0 0 0 0 0 0 0 0 0 0 0 0 0 0 0 0 0 0 0 81 260 340 737 658 539 481 483 430 254 119 65 39 39 11 10 6 0 0 0 0
0 0 0 0 0 0 0 0 0 0 0 0 0 0 0 0 0 0 0 0 0 0 0 0 0 0 0 0 47 197 127 189 8 0 3 72 71 49 81 19 29 28 7 4 17 3 0 0 0
0 0 0 0 0 0 0 0 0 0 0 0 0 0 0 0 0 0 0 0 0 0 0 0 0 1 0 1 16 1 1 0 1 1 3 2 5 5 4 3 1 0 0 0 0 0 0 0 0
0 0 0 0 0 0 0 0 0 0 0 0 0 0 0 0 0 0 0 0 0 0 0 0 1 0 2 1 2 3 2 2 2 2 1 1 1 2 2 2 2 4 2 0 0 0 0 0 0
0 0 0 0 0 0 0 0 0 0 0 0 0 0 0 0 0 0 0 0 0 0 0 0 1 0 0 0 0 0 0 0 0 0 0 0 0 2 3 3 3 2 2 1 0 0 0 0 0
0 0 0 0 0 0 0 0 0 0 0 0 0 0 0 0 0 0 0 0 0 0 0 0 0 0 0 0 0 0 0 0 0 0 0 0 0 0 0 0 0 0 0 0 0 1 0 1 0
0 0 0 0 0 0 0 0 0 0 0 0 0 0 0 0 0 0 0 0 0 0 0 0 0 0 0 0 0 0 0 0 0 0 0 0 0 0 0 0 0 0 0 0 0 0 0 0 0
0 0 0 0 0 0 0 0 0 0 0 0 0 0 0 0 0 0 0 0 0 0 0 0 0 0 0 0 0 0 0 0 0 0 0 0 0 0 0 0 0 0 0 0 0 0 0 0 0
0 0 0 0 0 0 0 0 0 0 0 0 0 0 0 0 0 0 0 0 0 0 0 0 0 0 0 0 0 0 0 0 0 0 0 0 0 0 0 0 0 0 0 0 0 0 0 0 0
0 0 0 0 0 0 0 0 0 0 0 0 0 0 0 0 0 0 0 0 0 0 0 0 0 0 0 0 0 0 0 0 0 0 0 0 0 0 0 0 0 0 0 0 0 0 0 0 0
0 0 0 0 0 0 0 0 0 0 0 0 0 0 0 0 0 0 0 0 0 0 0 0 0 0 0 0 0 0 0 0 0 0 0 0 0 0 0 0 0 0 0 0 0 0 0 0 0
0 0 0 0 0 0 0 0 0 0 0 0 0 0 0 0 0 0 0 0 0 0 0 0 0 0 0 0 0 0 0 0 0 0 0 0 0 0 0 0 0 0 0 0 0 0 0 0 0
0 0 0 0 0 0 0 0 0 0 0 0 0 0 0 0 0 0 0 0 0 0 0 0 0 0 0 0 0 0 0 0 0 0 0 0 0 0 0 0 0 0 0 0 0 0 0 0 0
0 0 0 0 0 0 0 0 0 0 0 0 0 0 0 0 0 0 0 0 0 0 0 0 0 0 0 0 0 0 0 0 0 0 0 0 0 0 0 0 0 0 0 0 0 0 0 0 0
0 0 0 0 0 0 0 0 0 0 0 0 0 0 0 0 0 0 0 0 0 0 0 0 0 0 0 0 0 0 0 0 0 0 0 0 0 0 0 0 0 0 0 0 0 0 0 0 0
0 0 0 0 0 0 0 0 0 0 0 0 0 0 0 0 0 0 0 0 0 0 0 0 0 0 0 0 0 0 0 0 0 0 0 0 0 0 0 0 0 0 0 0 0 0 0 0 0
0 0 0 0 0 0 0 0 0 0 0 0 0 0 0 0 0 0 0 0 0 0 0 0 0 0 0 0 0 0 0 0 0 0 0 0 0 0 0 0 0 0 0 0 0 0 0 0 0
0 0 0 0 0 0 0 0 0 0 0 0 0 0 0 0 0 0 0 0 0 0 0 0 0 0 0 0 0 0 0 0 0 0 0 0 0 0 0 0 0 0 0 0 0 0 0 0 0
0 0 0 0 0 0 0 0 0 0 0 0 0 0 0 0 0 0 0 0 0 0 0 0 0 0 0 0 0 0 0 0 0 0 0 0 0 0 0 0 0 0 0 0 0 0 0 0 0
CIN
0 0 0 0 0 0 0 0 0 0 0 0 0 0 0 0 0 0 0 -242 -231 -54 -11 -10 -2 -10 -12 -16 -28 -29 -26 -23 -6 0 0 0 0 -7 -27 -45 -57 0 0 0 0 0 0 0 0
0 0 0 0 0 0 0 0 0 0 0 0 0 0 0 0 0 0 0 -150 -209 -70 -5 -3 -2 -10 -10 -24 -39 -29 -22 -18 -2 -2 -1 -2 -2 -12 -23 -31 -51 -81 0 0 0 0 0 0 0
0 0 0 0 0 0 0 0 0 0 0 0 0 0 0 0 0 0 0 0 -156 -67 -1 -2 -7 -7 -6 -8 -13 -6 -5 -5 -3 -1 -1 -1 -4 -9 -13 -53 -129 0 0 0 0 0 0 0 0
0 0 0 0 0 0 0 0 0 0 0 0 0 0 0 0 0 0 0 -277 -142 -89 -11 -20 -19 -6 -3 -4 -6 -6 -3 -5 -8 -2 0 0 0 -7 -12 -84 -74 0 0 0 0 0 0 0 0
0 0 0 0 0 0 0 0 0 0 0 0 0 0 0 0 0 0 0 0 -166 -111 -27 -7 -26 -5 -4 -3 -7 -12 -7 -4 -4 -6 -10 -3 -1 -2 -20 -148 0 0 0 0 0 0 0 0 0
0 0 0 0 0 0 0 0 0 0 0 0 0 0 0 0 0 0 0 0 -219 -95 -41 -10 -17 -8 -3 -4 -5 -7 -12 -11 -13 -3 -2 -1 -3 -7 -15 -106 -55 0 0 0 0 0 0 0 0
0 0 0 0 0 0 0 0 0 0 0 0 0 0 0 0 0 0 0 0 -242 -102 -55 -44 -19 -5 -5 -2 -2 -4 -12 -15 -19 -11 -14 -5 -3 -10 -25 -93 -131 0 0 0 0 0 0 0 0
0 0 0 0 0 0 0 0 0 0 0 0 0 0 0 0 0 0 0 0 0 0 0 -219 -94 -47 -10 0 -9 -4 -2 -5 -6 -7 -12 -11 -7 -17 -134 0 0 0 0 0 0 0 0 0 0
0 0 0 0 0 0 0 0 0 0 0 0 0 0 0 0 0 0 0 0 0 0 0 0 0 -163 -156 -43 -5 -7 -9 -6 -10 -7 -15 -17 0 -3 -81 -83 -36 -33 -35 0 0 0 0 0 0
0 0 0 0 0 0 0 0 0 0 0 0 0 0 0 0 0 0 0 0 0 0 0 0 0 0 0 -139 -31 0 0 -6 -3 -1 -1 0 0 -1 -22 -34 -46 -44 -53 -62 0 0 0 0 0
0 0 0 0 0 0 0 0 0 0 0 0 0 0 0 0 0 0 0 0 0 0 0 0 0 0 0 -3 -118 -19 -6 -38 0 -1 0 -2 -9 -13 -25 -77 -53 -56 -62 -42 -63 -44 0 0 0
0 0 0 0 0 0 0 0 0 0 0 0 0 0 0 0 0 0 0 0 0 0 0 0 0 0 0 0 -146 -61 -37 -1 -2 -4 -8 -3 -6 -34 -72 -122 -26 -13 -38 -30 -49 -1 0 0 0
0 0 0 0 0 0 0 0 0 0 0 0 0 0 0 0 0 0 0 0 0 0 0 0 0 0 0 0 -201 -94 -137 -94 -39 0 0 -23 -26 -38 -44 -77 -13 -4 -20 -53 -12 -23 0 0 0
0 0 0 0 0 0 0 0 0 0 0 0 0 0 0 0 0 0 0 0 0 0 0 0 0 0 0 0 -71 -6 -2 0 0 0 0 0 -48 -55 -38 -33 -19 0 0 0 0 0 0 0 0
0 0 0 0 0 0 0 0 0 0 0 0 0 0 0 0 0 0 0 0 0 0 0 0 0 -2 0 0 0 0 0 0 0 0 0 0 0 0 0 0 0 0 0 0 0 0 0 0 0
0 0 0 0 0 0 0 0 0 0 0 0 0 0 0 0 0 0 0 0 0 0 0 0 0 0 0 0 0 0 0 0 0 0 0 0 0 0 0 0 0 0 0 0 0 0 0 0 0
0 0 0 0 0 0 0 0 0 0 0 0 0 0 0 0 0 0 0 0 0 0 0 0 0 0 0 0 0 0 0 0 0 0 0 0 0 0 0 0 0 0 0 0 0 0 0 0 0
0 0 0 0 0 0 0 0 0 0 0 0 0 0 0 0 0 0 0 0 0 0 0 0 0 0 0 0 0 0 0 0 0 0 0 0 0 0 0 0 0 0 0 0 0 0 0 0 0
0 0 0 0 0 0 0 0 0 0 0 0 0 0 0 0 0 0 0 0 0 0 0 0 0 0 0 0 0 0 0 0 0 0 0 0 0 0 0 0 0 0 0 0 0 0 0 0 0
0 0 0 0 0 0 0 0 0 0 0 0 0 0 0 0 0 0 0 0 0 0 0 0 0 0 0 0 0 0 0 0 0 0 0 0 0 0 0 0 0 0 0 0 0 0 0 0 0
0 0 0 0 0 0 0 0 0 0 0 0 0 0 0 0 0 0 0 0 0 0 0 0 0 0 0 0 0 0 0 0 0 0 0 0 0 0 0 0 0 0 0 0 0 0 0 0 0
0 0 0 0 0 0 0 0 0 0 0 0 0 0 0 0 0 0 0 0 0 0 0 0 0 0 0 0 0 0 0 0 0 0 0 0 0 0 0 0 0 0 0 0 0 0 0 0 0
0 0 0 0 0 0 0 0 0 0 0 0 0 0 0 0 0 0 0 0 0 0 0 0 0 0 0 0 0 0 0 0 0 0 0 0 0 0 0 0 0 0 0 0 0 0 0 0 0
0 0 0 0 0 0 0 0 0 0 0 0 0 0 0 0 0 0 0 0 0 0 0 0 0 0 0 0 0 0 0 0 0 0 0 0 0 0 0 0 0 0 0 0 0 0 0 0 0
0 0 0 0 0 0 0 0 0 0 0 0 0 0 0 0 0 0 0 0 0 0 0 0 0 0 0 0 0 0 0 0 0 0 0 0 0 0 0 0 0 0 0 0 0 0 0 0 0
0 0 0 0 0 0 0 0 0 0 0 0 0 0 0 0 0 0 0 0 0 0 0 0 0 0 0 0 0 0 0 0 0 0 0 0 0 0 0 0 0 0 0 0 0 0 0 0 0
0 0 0 0 0 0 0 0 0 0 0 0 0 0 0 0 0 0 0 0 0 0 0 0 0 0 0 0 0 0 0 0 0 0 0 0 0 0 0 0 0 0 0 0 0 0 0 0 0
0 0 0 0 0 0 0 0 0 0 0 0 0 0 0 0 0 0 0 0 0 0 0 0 0 0 0 0 0 0 0 0 0 0 0 0 0 0 0 0 0 0 0 0 0 0 0 0 0
0 0 0 0 0 0 0 0 0 0 0 0 0 0 0 0 0 0 0 0 0 0 0 0 0 0 0 0 0 0 0 0 0 0 0 0 0 0 0 0 0 0 0 0 0 0 0 0 0
0 0 0 0 0 0 0 0 0 0 0 0 0 0 0 0 0 0 0 0 0 0 0 0 0 0 0 0 0 0 0 0 0 0 0 0 0 0 0 0 0 0 0 0 0 0 0 0 0
Wind_Speed
15 15 15 16 17 19 21 21 20 20 20 21 21 7 21 15 12 12 17 19 17 22 22 23 22 19 19 19 19 17 14 14 14 14 14 14 16 17 19 19 20 19 20 20 20 20 20 20 20
15 15 17 16 18 20 20 20 20 20 20 20 20 19 20 22 16 17 14 19 17 21 21 21 21 20 18 16 16 16 16 16 15 15 14 15 16 17 18 19 20 20 20 20 19 20 20 20 19
16 16 16 16 17 18 18 18 19 19 18 18 19 17 18 19 20 14 11 19 19 19 19 17 19 19 18 17 16 14 14 15 15 15 15 15 16 17 18 19 19 19 20 20 20 20 20 20 20
16 16 15 14 16 17 17 17 17 18 17 17 18 19 19 15 17 13 20 16 19 18 18 15 16 17 15 15 15 14 13 13 13 14 14 15 15 16 17 18 19 20 21 21 20 21 21 21 20
17 14 14 15 15 15 16 16 16 15 16 15 15 16 17 17 15 15 16 9 18 17 17 14 15 15 13 12 11 12 12 12 12 13 13 13 14 14 16 18 19 20 21 21 21 22 22 22 21
11 13 12 11 13 14 14 14 14 14 14 14 15 14 15 16 15 15 15 15 15 14 13 13 13 12 10 10 9 9 10 10 11 12 13 13 12 13 15 16 18 19 20 21 22 22 22 22 21
13 10 12 11 10 11 12 12 12 12 13 13 14 13 13 15 16 16 16 15 15 14 13 12 10 10 9 9 8 8 8 9 10 11 12 13 12 13 14 16 17 18 19 20 21 22 22 22 21
15 13 12 9 7 8 9 10 10 10 10 12 14 12 11 16 18 14 15 15 15 15 14 14 14 14 7 6 7 7 7 7 9 10 11 10 11 12 13 15 16 18 18 19 21 21 22 21 21
15 13 10 10 6 8 8 7 8 11 10 12 15 15 15 19 18 14 13 14 15 15 16 16 15 12 12 7 11 4 5 7 9 8 8 8 9 9 11 13 15 17 17 18 19 21 22 21 21
14 15 14 16 11 9 7 6 7 8 8 11 12 14 17 17 17 16 16 17 18 19 18 18 18 16 11 9 5 6 5 6 6 6 7 7 10 11 11 13 15 16 16 17 18 20 21 22 22
16 17 15 12 11 10 8 8 9 9 9 15 12 13 15 15 16 16 17 18 20 21 20 21 20 18 13 7 7 7 7 8 6 10 9 10 12 13 13 15 16 17 16 17 18 20 21 21 22
16 16 14 13 10 10 8 13 12 11 15 13 14 13 13 14 16 17 19 21 22 21 22 22 21 19 15 10 7 9 9 8 13 14 16 13 14 14 14 15 16 17 18 19 20 21 22 22 22
16 15 14 12 10 10 13 11 15 12 13 13 13 14 14 16 18 18 20 21 22 23 24 23 23 21 16 9 8 9 12 13 14 15 17 16 16 17 18 18 18 19 19 19 21 21 22 22 23
17 15 14 12 10 11 14 13 15 11 11 12 13 13 14 17 20 20 22 23 24 23 23 23 22 20 14 11 11 11 12 13 14 17 18 18 18 18 18 19 19 19 20 21 20 22 22 23 23
18 20 15 13 13 16 14 15 13 11 8 10 11 13 16 19 20 21 22 23 23 21 20 19 18 16 13 11 10 11 12 13 15 17 19 20 20 20 20 20 20 21 20 19 21 22 22 23 24
19 20 20 14 12 16 12 20 10 9 7 9 13 15 18 20 21 21 22 21 20 18 17 16 15 13 11 10 10 11 12 13 15 17 19 20 21 21 21 21 22 23 22 21 21 22 23 23 26
18 24 16 19 12 16 12 19 14 8 9 13 15 16 16 18 19 21 20 19 16 15 14 14 13 11 10 10 11 11 13 14 15 17 18 20 21 21 21 21 22 22 22 24 24 25 25 27 28
25 20 22 22 17 17 16 18 16 12 12 14 16 16 17 18 20 19 18 15 13 13 13 12 11 10 10 10 11 12 13 14 16 17 19 20 20 21 21 21 23 23 23 25 25 25 25 27 30
27 27 26 24 20 23 20 22 20 15 15 16 16 17 19 18 18 16 14 11 10 11 11 10 9 9 10 10 10 11 12 14 16 17 18 19 20 21 21 22 23 23 25 26 28 28 28 30 34
23 26 27 28 22 25 29 32 29 21 16 18 19 19 18 17 14 12 10 9 9 9 9 9 9 9 10 10 11 11 12 14 15 16 18 20 20 21 22 22 24 25 26 28 29 30 29 30 33
23 25 28 30 25 26 35 43 35 23 19 23 23 19 16 13 11 10 9 8 8 8 8 8 8 9 10 10 11 12 12 13 14 16 17 20 21 22 23 23 24 25 27 28 29 31 32 32 32
29 25 28 31 32 36 24 45 35 26 20 21 18 16 13 10 7 8 7 7 6 7 7 7 7 8 9 9 10 10 11 12 14 15 17 19 21 22 23 24 25 26 27 29 30 31 31 32 34
30 25 27 29 36 41 37 40 43 29 24 22 17 13 11 8 7 6 5 5 5 5 5 6 6 7 8 9 10 10 11 12 13 15 17 19 21 22 24 25 26 27 28 29 31 32 33 33 33
20 25 28 30 34 43 35 32 46 30 27 22 13 11 10 9 7 6 5 4 4 4 5 5 6 7 9 10 10 11 11 11 12 14 17 19 21 23 24 25 26 27 28 30 31 31 32 33 33
22 25 34 35 32 40 29 27 31 24 21 16 10 11 10 9 8 6 5 4 3 3 4 5 5 7 8 9 10 10 11 12 14 15 17 18 20 22 24 25 27 28 29 30 31 32 32 34 35
23 23 28 38 36 37 28 32 31 24 17 14 9 8 9 9 9 8 7 5 4 4 4 4 5 7 8 9 10 11 12 14 16 17 17 19 20 22 24 25 27 28 29 30 31 32 33 34 35
26 29 26 35 33 38 31 31 30 21 19 16 9 8 10 10 10 9 9 8 7 7 6 6 7 8 8 8 9 11 12 13 15 16 17 19 20 22 23 25 26 27 29 30 32 33 34 35 35
26 21 26 27 34 37 33 31 28 19 16 14 12 10 9 9 10 10 10 10 9 9 8 8 8 8 8 8 9 11 13 14 15 16 18 20 21 22 23 25 27 28 30 31 32 34 34 35 35
26 28 26 26 28 34 38 33 19 19 13 12 13 11 10 10 11 11 12 11 11 10 9 9 9 9 9 10 11 12 13 14 15 17 18 19 20 21 23 26 28 29 31 32 33 33 34 35 37
27 27 24 31 31 32 36 38 20 18 12 10 12 12 11 11 11 11 12 13 13 13 12 11 10 11 11 11 12 13 14 15 16 17 17 18 20 22 23 26 29 30 31 32 32 34 34 36 38
Wind_Direction
197 181 167 133 98 92 86 85 97 90 93 87 69 346 34 354 312 328 113 118 152 122 116 126 122 107 101 99 93 75 44 25 24 23 26 24 17 14 11 7 4 0 2 -0 -0 359 359 360 1
195 182 138 112 90 81 71 87 81 71 77 105 105 106 73 41 4 22 62 76 134 118 118 122 122 116 105 93 88 83 69 61 45 36 28 27 23 12 8 8 5 2 360 356 353 353 351 351 353
185 171 111 83 85 62 73 89 82 72 62 103 97 107 112 92 22 356 266 99 79 100 112 101 116 115 110 105 96 80 70 64 53 44 36 28 20 17 11 6 1 357 356 353 352 350 349 347 346
196 99 94 91 65 60 68 82 84 83 56 76 105 57 66 343 120 162 100 138 93 99 112 84 112 124 110 104 104 98 83 63 48 35 29 26 27 24 12 9 5 359 358 356 351 348 347 345 343
166 90 56 56 56 60 73 74 85 78 62 40 85 60 44 19 10 355 27 245 87 95 110 90 113 118 104 99 92 87 78 68 57 45 33 29 26 26 22 17 10 3 359 358 354 351 350 349 347
42 29 52 70 57 63 71 77 82 75 63 43 25 37 19 28 14 353 345 356 1 30 53 83 112 115 92 103 92 73 60 49 38 33 27 23 35 25 21 18 11 8 6 4 359 356 353 351 350
356 39 21 33 59 66 65 75 89 68 66 37 29 38 41 2 359 1 355 0 3 11 28 33 75 113 111 102 101 78 54 39 25 22 18 19 26 19 16 14 11 6 4 1 358 358 354 353 352
339 358 6 39 64 61 58 67 46 69 26 21 7 46 67 336 339 7 2 2 359 357 360 358 340 336 26 101 111 99 80 56 29 19 16 26 21 16 15 14 12 8 5 2 358 355 352 352 350
346 352 5 11 46 31 41 64 36 358 15 355 347 351 340 321 332 351 3 358 354 347 338 336 339 351 345 359 347 43 40 29 19 29 32 34 30 30 24 12 10 5 5 3 3 357 351 352 349
343 340 344 341 2 13 34 41 26 16 10 356 353 351 340 330 330 333 325 323 324 326 332 329 326 329 343 354 13 17 13 5 13 25 28 34 16 16 13 7 5 2 359 357 356 353 353 350 345
333 330 339 349 356 5 11 358 354 352 349 327 344 351 349 348 338 334 333 327 320 321 324 323 321 324 337 4 1 355 356 1 18 1 9 2 356 354 349 348 349 350 353 352 352 347 344 346 345
330 332 340 344 352 353 352 332 335 332 323 333 331 338 344 343 341 335 328 318 317 324 324 320 318 320 329 341 0 356 1 6 346 347 341 347 346 346 345 344 342 342 341 341 341 341 339 341 341
324 331 335 342 348 345 330 329 319 325 328 331 332 331 326 325 326 333 330 322 321 320 319 317 313 312 320 335 350 354 345 344 346 346 344 344 347 345 345 344 342 338 340 340 338 339 338 337 337
326 326 328 331 333 328 319 320 319 320 326 322 322 322 322 321 320 324 321 320 322 324 321 317 312 313 327 332 332 336 342 345 347 345 342 342 344 342 342 341 341 338 337 336 336 335 333 332 331
320 316 318 315 317 318 318 309 307 318 328 323 318 318 319 318 319 321 323 322 322 328 327 325 325 332 337 340 344 343 346 348 349 349 348 348 349 350 348 346 342 340 339 337 335 333 333 331 330
316 314 311 324 318 316 311 310 320 320 316 313 309 310 313 315 318 321 323 325 329 333 334 336 343 351 355 358 356 355 355 354 352 351 350 350 350 352 353 352 350 347 346 347 342 340 335 333 328
309 303 311 315 318 317 307 311 314 315 308 305 305 309 315 318 320 320 322 324 333 340 343 345 351 1 13 18 18 12 7 3 1 357 354 352 353 355 355 353 351 351 351 349 347 344 340 333 331
302 303 304 305 315 305 302 297 307 305 300 300 302 305 310 315 317 320 319 325 335 342 351 353 359 16 32 31 28 23 19 9 3 360 358 358 358 357 356 353 351 350 349 347 344 344 343 339 333
300 299 301 307 309 304 298 295 297 293 294 294 297 300 304 309 315 317 321 329 338 345 352 2 19 22 21 22 14 5 358 6 4 3 4 5 3 1 359 357 356 356 352 348 344 341 340 337 331
294 296 297 300 304 302 297 292 292 290 280 286 291 293 298 304 309 312 321 330 336 342 344 356 357 4 0 5 10 13 17 17 18 15 14 10 7 5 3 360 356 352 350 348 345 343 338 337 335
290 291 295 296 304 301 298 289 288 278 281 291 289 288 291 292 297 300 311 326 333 333 334 344 355 0 13 25 34 37 37 29 21 13 11 5 4 3 1 358 355 352 349 346 344 341 339 334 335
289 293 294 294 295 294 301 289 290 296 279 287 287 276 274 276 278 292 302 316 332 334 338 347 6 15 18 27 28 18 17 16 11 9 11 7 360 358 356 354 352 349 346 343 341 340 338 335 332
293 301 297 296 291 291 287 291 291 289 283 285 276 263 254 250 256 269 285 305 322 332 333 349 357 357 8 14 15 13 13 12 10 5 1 358 355 353 351 350 348 346 344 342 340 338 337 335 331
298 301 301 299 295 285 286 283 288 286 290 286 264 249 239 238 238 253 272 284 296 312 320 325 336 344 350 358 1 4 5 4 3 358 353 350 349 347 347 347 346 345 342 340 339 338 337 335 333
285 292 296 294 289 289 300 284 279 304 302 292 250 234 230 235 234 236 237 239 261 284 304 321 333 337 348 356 358 1 359 354 352 349 348 347 346 344 344 344 343 342 342 340 338 337 335 333 330
273 273 286 293 291 294 299 289 293 294 296 297 276 233 222 224 227 228 224 231 239 258 281 304 316 324 333 340 347 351 350 345 344 344 344 344 343 342 341 341 341 340 340 339 337 335 334 332 330
285 273 282 291 293 293 292 295 297 295 287 285 267 232 222 221 225 221 229 236 244 254 270 285 296 308 321 330 336 338 340 338 339 341 343 342 342 340 340 340 340 339 338 337 334 332 331 330 329
278 289 283 279 286 288 292 288 290 292 278 272 255 238 229 231 230 225 229 234 241 252 265 278 287 295 306 316 323 329 331 332 334 336 336 337 338 338 338 338 337 336 334 334 333 331 331 329 328
275 273 280 283 275 287 290 293 298 285 273 257 250 235 227 224 229 232 234 238 243 250 256 261 270 279 291 303 312 319 322 325 328 330 333 334 336 336 335 334 333 332 331 332 331 331 330 328 327
271 274 260 276 281 278 285 284 301 302 292 268 256 249 250 242 240 241 242 242 246 248 250 254 263 275 284 294 302 309 314 317 321 324 327 330 331 332 332 332 330 330 330 331 331 329 329 327 325